X67 YBHM-YSSY

Flight info

Callsign X67
Flight time 1h 58m
Altitude 45000
Route OVRON B462 MK H652 BOREE
Aircraft C750/M-SBDE3FGHRWXY/S

Departure

Time 2026-04-16 07:16
Airport Hamilton Island Airport (YBHM)

Arrival

Time 2026-04-16 09:14
Airport Sydney Kingsford Smith International Airport (YSSY)
Time Latitude Longitude Altitude Speed Heading
2026-04-16 07:00 -20.35399 148.95023 17 ft 0 kts 277°
2026-04-16 07:11 -20.35398 148.95018 17 ft 2 kts 277°
2026-04-16 07:12 -20.35387 148.94987 18 ft 8 kts 272°
2026-04-16 07:12 -20.35418 148.94930 18 ft 10 kts 295°
2026-04-16 07:12 -20.35356 148.94853 18 ft 18 kts 320°
2026-04-16 07:12 -20.35228 148.94750 16 ft 26 kts 323°
2026-04-16 07:13 -20.35107 148.94694 15 ft 13 kts
2026-04-16 07:13 -20.35103 148.94653 16 ft 8 kts 175°
2026-04-16 07:13 -20.35144 148.94681 16 ft 7 kts 148°
2026-04-16 07:13 -20.35161 148.94691 16 ft 1 kts 143°
2026-04-16 07:14 -20.35176 148.94705 16 ft 4 kts 140°
2026-04-16 07:14 -20.35186 148.94713 16 ft 0 kts 142°
2026-04-16 07:14 -20.35187 148.94714 16 ft 2 kts 142°
2026-04-16 07:15 -20.35187 148.94715 16 ft 0 kts 142°
2026-04-16 07:15 -20.35189 148.94716 16 ft 0 kts 143°
2026-04-16 07:16 -20.35387 148.94874 20 ft 91 kts 141°
2026-04-16 07:16 -20.36086 148.95441 200 ft 141 kts 140°
2026-04-16 07:16 -20.36937 148.96115 709 ft 162 kts 145°
2026-04-16 07:17 -20.38054 148.96540 1254 ft 186 kts 167°
2026-04-16 07:17 -20.39471 148.96512 1604 ft 220 kts 184°
2026-04-16 07:17 -20.41058 148.96732 1860 ft 246 kts 157°
2026-04-16 07:17 -20.42653 148.97593 2350 ft 269 kts 152°
2026-04-16 07:18 -20.44363 148.98277 3849 ft 251 kts 162°
2026-04-16 07:18 -20.45485 148.98567 4717 ft 253 kts 165°
2026-04-16 07:18 -20.47883 148.99152 5798 ft 269 kts 166°
2026-04-16 07:18 -20.49652 148.99652 6936 ft 265 kts 166°
2026-04-16 07:19 -20.51463 149.00175 7908 ft 272 kts 166°
2026-04-16 07:19 -20.53306 149.00690 8949 ft 277 kts 166°
2026-04-16 07:19 -20.54580 149.01043 9617 ft 281 kts 166°
2026-04-16 07:19 -20.56494 149.01577 10261 ft 298 kts 166°
2026-04-16 07:20 -20.59338 149.02377 10755 ft 327 kts 166°
2026-04-16 07:20 -20.60794 149.02788 11412 ft 326 kts 166°
2026-04-16 07:20 -20.63012 149.03412 12194 ft 332 kts 166°
2026-04-16 07:20 -20.65269 149.04045 13031 ft 336 kts 166°
2026-04-16 07:21 -20.67536 149.04682 13914 ft 338 kts 166°
2026-04-16 07:21 -20.69827 149.05327 14608 ft 343 kts 166°
2026-04-16 07:21 -20.72165 149.05984 15245 ft 350 kts 167°
2026-04-16 07:21 -20.74539 149.06652 15946 ft 355 kts 167°
2026-04-16 07:22 -20.76918 149.07321 16626 ft 361 kts 167°
2026-04-16 07:22 -20.79369 149.08012 17351 ft 367 kts 167°
2026-04-16 07:22 -20.81856 149.08712 18092 ft 372 kts 168°
2026-04-16 07:22 -20.84384 149.09424 18777 ft 377 kts 168°
2026-04-16 07:23 -20.86938 149.10144 19476 ft 382 kts 168°
2026-04-16 07:23 -20.89522 149.10873 20182 ft 386 kts 168°
2026-04-16 07:23 -20.92142 149.11611 20895 ft 391 kts 168°
2026-04-16 07:23 -20.94789 149.12358 21605 ft 396 kts 168°
2026-04-16 07:24 -20.97443 149.13107 22305 ft 401 kts 168°
2026-04-16 07:24 -21.00160 149.13874 23015 ft 406 kts 168°
2026-04-16 07:24 -21.02920 149.14654 23705 ft 412 kts 168°
2026-04-16 07:24 -21.05713 149.15443 24296 ft 416 kts 168°
2026-04-16 07:25 -21.08532 149.16240 24888 ft 421 kts 168°
2026-04-16 07:25 -21.11380 149.17045 25477 ft 426 kts 169°
2026-04-16 07:25 -21.14265 149.17862 26064 ft 430 kts 169°
2026-04-16 07:25 -21.17149 149.18657 26634 ft 434 kts 171°
2026-04-16 07:26 -21.20146 149.19139 27194 ft 436 kts 176°
2026-04-16 07:26 -21.23170 149.19569 27799 ft 441 kts 176°
2026-04-16 07:26 -21.26223 149.20041 28383 ft 446 kts 176°
2026-04-16 07:26 -21.29310 149.20513 28964 ft 451 kts 176°
2026-04-16 07:27 -21.32437 149.20967 29513 ft 456 kts 176°
2026-04-16 07:27 -21.35592 149.21425 30073 ft 460 kts 176°
2026-04-16 07:27 -21.38797 149.21903 30298 ft 472 kts 176°
2026-04-16 07:27 -21.42102 149.22397 30294 ft 488 kts 176°
2026-04-16 07:28 -21.45455 149.22896 30549 ft 495 kts 176°
2026-04-16 07:28 -21.48872 149.23407 31080 ft 496 kts 176°
2026-04-16 07:28 -21.52300 149.23916 31513 ft 499 kts 176°
2026-04-16 07:28 -21.55748 149.24427 31953 ft 501 kts 176°
2026-04-16 07:29 -21.59211 149.24942 32379 ft 504 kts 176°
2026-04-16 07:29 -21.62693 149.25462 32802 ft 506 kts 176°
2026-04-16 07:29 -21.66189 149.25983 33225 ft 509 kts 176°
2026-04-16 07:29 -21.69700 149.26506 33632 ft 511 kts 176°
2026-04-16 07:30 -21.73180 149.27025 34024 ft 513 kts 176°
2026-04-16 07:30 -21.76727 149.27554 34381 ft 516 kts 176°
2026-04-16 07:30 -21.80289 149.28086 34715 ft 518 kts 176°
2026-04-16 07:30 -21.83872 149.28621 35045 ft 521 kts 176°
2026-04-16 07:31 -21.87470 149.29159 35380 ft 524 kts 177°
2026-04-16 07:31 -21.91089 149.29700 35617 ft 527 kts 177°
2026-04-16 07:31 -21.94722 149.30244 35985 ft 528 kts 177°
2026-04-16 07:31 -21.98371 149.30789 36296 ft 531 kts 177°
2026-04-16 07:32 -22.01993 149.31330 36622 ft 533 kts 177°
2026-04-16 07:32 -22.05691 149.31886 36960 ft 535 kts 177°
2026-04-16 07:32 -22.09388 149.32441 37252 ft 538 kts 176°
2026-04-16 07:32 -22.13104 149.32997 37558 ft 540 kts 177°
2026-04-16 07:33 -22.16835 149.33556 37821 ft 542 kts 177°
2026-04-16 07:33 -22.20575 149.34119 38090 ft 542 kts 177°
2026-04-16 07:33 -22.24267 149.34679 38873 ft 531 kts 177°
2026-04-16 07:34 -22.31604 149.35773 39082 ft 536 kts 177°
2026-04-16 07:34 -22.35314 149.36332 39216 ft 537 kts 176°
2026-04-16 07:34 -22.39033 149.36897 39352 ft 538 kts 176°
2026-04-16 07:34 -22.42699 149.37423 39460 ft 537 kts 179°
2026-04-16 07:35 -22.46433 149.37659 39558 ft 535 kts 182°
2026-04-16 07:35 -22.50163 149.37804 39673 ft 536 kts 183°
2026-04-16 07:35 -22.53903 149.37966 39794 ft 537 kts 182°
2026-04-16 07:35 -22.57599 149.38168 39901 ft 538 kts 182°
2026-04-16 07:36 -22.61352 149.38371 39999 ft 539 kts 182°
2026-04-16 07:36 -22.65122 149.38545 40107 ft 539 kts 182°
2026-04-16 07:36 -22.68835 149.38711 40196 ft 540 kts 182°
2026-04-16 07:37 -22.76365 149.39096 40401 ft 542 kts 182°
2026-04-16 07:37 -22.80139 149.39281 40505 ft 543 kts 182°
2026-04-16 07:37 -22.83912 149.39458 40600 ft 543 kts 182°
2026-04-16 07:38 -22.91478 149.39834 40769 ft 545 kts 182°
2026-04-16 07:38 -22.99064 149.40206 40936 ft 546 kts 182°
2026-04-16 07:38 -23.02870 149.40392 41043 ft 546 kts 182°
2026-04-16 07:39 -23.06615 149.40578 41131 ft 547 kts 182°
2026-04-16 07:39 -23.14252 149.40956 41263 ft 548 kts 182°
2026-04-16 07:40 -23.21887 149.41331 41382 ft 549 kts 182°
2026-04-16 07:40 -23.29493 149.41708 41487 ft 550 kts 182°
2026-04-16 07:41 -23.37127 149.42086 41562 ft 550 kts 182°
2026-04-16 07:41 -23.44810 149.42466 41617 ft 551 kts 182°
2026-04-16 07:42 -23.52452 149.42845 41653 ft 551 kts 182°
2026-04-16 07:42 -23.60145 149.43227 41685 ft 552 kts 183°
2026-04-16 07:43 -23.67802 149.43608 41698 ft 553 kts 183°
2026-04-16 07:43 -23.75470 149.43990 41716 ft 553 kts 183°
2026-04-16 07:44 -23.83148 149.44372 41737 ft 553 kts 183°
2026-04-16 07:44 -23.90863 149.44758 41759 ft 553 kts 183°
2026-04-16 07:45 -23.98571 149.45142 41772 ft 554 kts 183°
2026-04-16 07:45 -24.06240 149.45527 41788 ft 554 kts 183°
2026-04-16 07:46 -24.13925 149.45911 41810 ft 554 kts 183°
2026-04-16 07:46 -24.21649 149.46298 41801 ft 555 kts 183°
2026-04-16 07:47 -24.29374 149.46686 41815 ft 555 kts 183°
2026-04-16 07:47 -24.37059 149.47073 41819 ft 555 kts 183°
2026-04-16 07:48 -24.44784 149.47461 41819 ft 555 kts 183°
2026-04-16 07:48 -24.52522 149.47851 41822 ft 555 kts 183°
2026-04-16 07:49 -24.60211 149.48238 41827 ft 555 kts 183°
2026-04-16 07:49 -24.64072 149.48436 42271 ft 542 kts 183°
2026-04-16 07:49 -24.67727 149.48632 43000 ft 520 kts 183°
2026-04-16 07:50 -24.74881 149.48977 42915 ft 506 kts 184°
2026-04-16 07:50 -24.81821 149.49336 42891 ft 496 kts 184°
2026-04-16 07:51 -24.88678 149.49679 42876 ft 489 kts 184°
2026-04-16 07:51 -24.95407 149.50022 43037 ft 481 kts 184°
2026-04-16 07:51 -24.98733 149.50195 43300 ft 475 kts 184°
2026-04-16 07:52 -25.02014 149.50359 43577 ft 469 kts 184°
2026-04-16 07:52 -25.05266 149.50522 43844 ft 464 kts 184°
2026-04-16 07:52 -25.08462 149.50683 44053 ft 464 kts 184°
2026-04-16 07:52 -25.11706 149.50847 44193 ft 466 kts 184°
2026-04-16 07:53 -25.14959 149.51013 44331 ft 468 kts 184°
2026-04-16 07:53 -25.18176 149.51177 44475 ft 469 kts 184°
2026-04-16 07:53 -25.21445 149.51344 44622 ft 470 kts 184°
2026-04-16 07:53 -25.24729 149.51512 44777 ft 471 kts 184°
2026-04-16 07:54 -25.28017 149.51679 44899 ft 472 kts 184°
2026-04-16 07:54 -25.31271 149.51845 45016 ft 473 kts 184°
2026-04-16 07:54 -25.34563 149.52014 45096 ft 475 kts 184°
2026-04-16 07:55 -25.41227 149.52352 45094 ft 482 kts 184°
2026-04-16 07:55 -25.47941 149.52697 45096 ft 488 kts 184°
2026-04-16 07:56 -25.54799 149.53048 45097 ft 495 kts 184°
2026-04-16 07:56 -25.61703 149.53402 45100 ft 500 kts 184°
2026-04-16 07:57 -25.68672 149.53761 45099 ft 505 kts 184°
2026-04-16 07:57 -25.75712 149.54122 45096 ft 509 kts 184°
2026-04-16 07:58 -25.82853 149.54490 45098 ft 514 kts 184°
2026-04-16 07:58 -25.90000 149.54858 45092 ft 517 kts 184°
2026-04-16 07:59 -25.97252 149.55233 45095 ft 521 kts 184°
2026-04-16 07:59 -26.04490 149.55607 45116 ft 523 kts 184°
2026-04-16 08:00 -26.11760 149.55983 45095 ft 524 kts 184°
2026-04-16 08:00 -26.19028 149.56363 45098 ft 518 kts 184°
2026-04-16 08:01 -26.26177 149.56733 45092 ft 511 kts 184°
2026-04-16 08:01 -26.33202 149.57097 45101 ft 504 kts 185°
2026-04-16 08:02 -26.40187 149.57460 45087 ft 498 kts 185°
2026-04-16 08:02 -26.50470 149.57995 45090 ft 490 kts 185°
2026-04-16 08:03 -26.57265 149.58349 45084 ft 485 kts 185°
2026-04-16 08:03 -26.63960 149.58699 45085 ft 481 kts 186°
2026-04-16 08:04 -26.70647 149.59048 45081 ft 477 kts 186°
2026-04-16 08:04 -26.77249 149.59394 45083 ft 474 kts 186°
2026-04-16 08:05 -26.83797 149.59736 45083 ft 471 kts 186°
2026-04-16 08:05 -26.90324 149.60078 45086 ft 470 kts 186°
2026-04-16 08:06 -26.96897 149.60423 45091 ft 470 kts 186°
2026-04-16 08:06 -27.03432 149.60766 45092 ft 472 kts 186°
2026-04-16 08:07 -27.09998 149.61112 45098 ft 473 kts 186°
2026-04-16 08:07 -27.16600 149.61457 45095 ft 480 kts 186°
2026-04-16 08:08 -27.23339 149.61814 45090 ft 487 kts 186°
2026-04-16 08:08 -27.30151 149.62174 45089 ft 493 kts 186°
2026-04-16 08:09 -27.37047 149.62539 45109 ft 499 kts 186°
2026-04-16 08:09 -27.44026 149.62908 45092 ft 505 kts 186°
2026-04-16 08:10 -27.51072 149.63282 45089 ft 509 kts 186°
2026-04-16 08:10 -27.58183 149.63660 45094 ft 514 kts 186°
2026-04-16 08:11 -27.65301 149.64038 45082 ft 518 kts 186°
2026-04-16 08:11 -27.72540 149.64424 45087 ft 522 kts 186°
2026-04-16 08:12 -27.78581 149.64746 45087 ft 524 kts 186°
2026-04-16 08:12 -27.85882 149.65136 45085 ft 526 kts 186°
2026-04-16 08:13 -27.93216 149.65527 45079 ft 529 kts 185°
2026-04-16 08:13 -28.00571 149.65922 45071 ft 529 kts 185°
2026-04-16 08:14 -28.07928 149.66316 45081 ft 529 kts 186°
2026-04-16 08:14 -28.15276 149.66711 45101 ft 528 kts 186°
2026-04-16 08:15 -28.22634 149.68088 45071 ft 543 kts 173°
2026-04-16 08:15 -28.29946 149.70235 45083 ft 542 kts 174°
2026-04-16 08:16 -28.37263 149.72344 45079 ft 542 kts 173°
2026-04-16 08:16 -28.44524 149.74474 45075 ft 543 kts 174°
2026-04-16 08:17 -28.51857 149.76603 45076 ft 544 kts 173°
2026-04-16 08:17 -28.59198 149.78755 45077 ft 544 kts 173°
2026-04-16 08:19 -28.88602 149.87376 45077 ft 546 kts 174°
2026-04-16 08:20 -28.95919 149.89529 45076 ft 546 kts 174°
2026-04-16 08:20 -29.03284 149.91701 45079 ft 547 kts 174°
2026-04-16 08:21 -29.10648 149.93875 45083 ft 546 kts 174°
2026-04-16 08:21 -29.17998 149.96049 45081 ft 545 kts 174°
2026-04-16 08:22 -29.25336 149.98221 45103 ft 545 kts 174°
2026-04-16 08:22 -29.32687 150.00401 45083 ft 545 kts 174°
2026-04-16 08:23 -29.40025 150.02581 45081 ft 545 kts 174°
2026-04-16 08:23 -29.47365 150.04763 45080 ft 544 kts 174°
2026-04-16 08:24 -29.54702 150.06948 45080 ft 545 kts 174°
2026-04-16 08:24 -29.62041 150.09137 45084 ft 545 kts 174°
2026-04-16 08:25 -29.69393 150.11333 45088 ft 546 kts 174°
2026-04-16 08:25 -29.76697 150.13520 45085 ft 544 kts 174°
2026-04-16 08:26 -29.83951 150.15699 45071 ft 533 kts 174°
2026-04-16 08:26 -29.91073 150.17832 45086 ft 524 kts 174°
2026-04-16 08:27 -29.98082 150.19941 45082 ft 516 kts 175°
2026-04-16 08:27 -30.04978 150.22016 45087 ft 509 kts 175°
2026-04-16 08:28 -30.11783 150.24067 45085 ft 502 kts 175°
2026-04-16 08:28 -30.18500 150.26095 45093 ft 496 kts 175°
2026-04-16 08:29 -30.25155 150.28107 45087 ft 491 kts 175°
2026-04-16 08:29 -30.31720 150.30095 45099 ft 485 kts 175°
2026-04-16 08:30 -30.38233 150.32067 45100 ft 483 kts 176°
2026-04-16 08:30 -30.44760 150.34050 45098 ft 475 kts 175°
2026-04-16 08:31 -30.51068 150.35965 45090 ft 471 kts 176°
2026-04-16 08:31 -30.57480 150.37909 45105 ft 482 kts 175°
2026-04-16 08:32 -30.60652 150.38897 45744 ft 460 kts 176°
2026-04-16 08:32 -30.63613 150.39848 46794 ft 406 kts 177°
2026-04-16 08:32 -30.66044 150.40634 48942 ft 332 kts 181°
2026-04-16 08:32 -30.68211 150.41270 49160 ft 326 kts 183°
2026-04-16 08:33 -30.70641 150.41865 47633 ft 388 kts 181°
2026-04-16 08:33 -30.73404 150.42666 46870 ft 426 kts 176°
2026-04-16 08:33 -30.76358 150.43666 46189 ft 455 kts 175°
2026-04-16 08:33 -30.79481 150.44672 45544 ft 477 kts 176°
2026-04-16 08:34 -30.82766 150.45630 45114 ft 494 kts 176°
2026-04-16 08:34 -30.86089 150.46619 45130 ft 503 kts 175°
2026-04-16 08:34 -30.92971 150.48786 45080 ft 518 kts 175°
2026-04-16 08:35 -30.99996 150.50914 45072 ft 523 kts 175°
2026-04-16 08:35 -31.07030 150.53098 45064 ft 523 kts 175°
2026-04-16 08:36 -31.14074 150.55256 45067 ft 525 kts 175°
2026-04-16 08:36 -31.21160 150.57449 45069 ft 530 kts 175°
2026-04-16 08:37 -31.28368 150.59669 45066 ft 540 kts 175°
2026-04-16 08:37 -31.35567 150.61919 45050 ft 523 kts 175°
2026-04-16 08:38 -31.42536 150.64055 45064 ft 524 kts 175°
2026-04-16 08:38 -31.49621 150.66268 45061 ft 526 kts 174°
2026-04-16 08:39 -31.56711 150.68469 45065 ft 526 kts 175°
2026-04-16 08:39 -31.63761 150.70664 45067 ft 527 kts 174°
2026-04-16 08:40 -31.70863 150.72884 45070 ft 525 kts 175°
2026-04-16 08:40 -31.77886 150.75079 44655 ft 518 kts 175°
2026-04-16 08:41 -31.81350 150.76171 43941 ft 507 kts 175°
2026-04-16 08:41 -31.84697 150.77222 43280 ft 497 kts 176°
2026-04-16 08:41 -31.88009 150.78255 42636 ft 486 kts 177°
2026-04-16 08:41 -31.91261 150.79271 42026 ft 478 kts 177°
2026-04-16 08:42 -31.94460 150.80272 41382 ft 474 kts 178°
2026-04-16 08:42 -31.97607 150.81258 40756 ft 473 kts 178°
2026-04-16 08:42 -32.00797 150.82256 40140 ft 476 kts 179°
2026-04-16 08:42 -32.04009 150.83183 39496 ft 470 kts 184°
2026-04-16 08:43 -32.07235 150.83750 38884 ft 466 kts 187°
2026-04-16 08:43 -32.10456 150.84306 38216 ft 468 kts 186°
2026-04-16 08:43 -32.13651 150.84884 37604 ft 469 kts 186°
2026-04-16 08:43 -32.16894 150.85457 37015 ft 471 kts 186°
2026-04-16 08:44 -32.20174 150.86021 36347 ft 473 kts 186°
2026-04-16 08:44 -32.23394 150.86583 35732 ft 475 kts 186°
2026-04-16 08:44 -32.26667 150.87163 35104 ft 476 kts 185°
2026-04-16 08:44 -32.29974 150.87747 34469 ft 477 kts 185°
2026-04-16 08:45 -32.33235 150.88318 33811 ft 479 kts 185°
2026-04-16 08:45 -32.36539 150.88898 33158 ft 479 kts 184°
2026-04-16 08:45 -32.39850 150.89483 32522 ft 479 kts 184°
2026-04-16 08:45 -32.43119 150.90060 31893 ft 480 kts 183°
2026-04-16 08:46 -32.46427 150.90642 31255 ft 480 kts 182°
2026-04-16 08:46 -32.49757 150.91227 30623 ft 481 kts 181°
2026-04-16 08:46 -32.53031 150.91809 29972 ft 476 kts 181°
2026-04-16 08:46 -32.56283 150.92392 29328 ft 470 kts 181°
2026-04-16 08:47 -32.59509 150.92959 28700 ft 465 kts 181°
2026-04-16 08:47 -32.62704 150.93520 28104 ft 462 kts 180°
2026-04-16 08:47 -32.65865 150.94084 27499 ft 457 kts 180°
2026-04-16 08:47 -32.69009 150.94639 26884 ft 454 kts 180°
2026-04-16 08:48 -32.72095 150.95182 26297 ft 450 kts 180°
2026-04-16 08:48 -32.75189 150.95735 25698 ft 445 kts 179°
2026-04-16 08:48 -32.78259 150.96282 25110 ft 441 kts 179°
2026-04-16 08:48 -32.81247 150.96811 24536 ft 438 kts 179°
2026-04-16 08:49 -32.84256 150.97344 23944 ft 434 kts 178°
2026-04-16 08:49 -32.87239 150.97887 23349 ft 431 kts 178°
2026-04-16 08:49 -32.90199 150.98408 22770 ft 426 kts 179°
2026-04-16 08:49 -32.93128 150.98919 22197 ft 424 kts 178°
2026-04-16 08:50 -32.96004 150.99435 21633 ft 421 kts 178°
2026-04-16 08:50 -32.98889 150.99963 21090 ft 417 kts 178°
2026-04-16 08:50 -33.01747 151.00467 20550 ft 414 kts 178°
2026-04-16 08:50 -33.04591 151.00967 20001 ft 411 kts 178°
2026-04-16 08:51 -33.07406 151.01473 19462 ft 408 kts 177°
2026-04-16 08:51 -33.10205 151.01979 18921 ft 405 kts 177°
2026-04-16 08:51 -33.12982 151.02478 18388 ft 402 kts 177°
2026-04-16 08:51 -33.15742 151.02968 17828 ft 399 kts 177°
2026-04-16 08:52 -33.18503 151.03458 17293 ft 397 kts 177°
2026-04-16 08:52 -33.21199 151.03948 16779 ft 395 kts 176°
2026-04-16 08:52 -33.23912 151.04447 16247 ft 392 kts 176°
2026-04-16 08:52 -33.26602 151.04939 15734 ft 389 kts 176°
2026-04-16 08:53 -33.29273 151.05452 15220 ft 387 kts 175°
2026-04-16 08:53 -33.31892 151.05969 14719 ft 384 kts 175°
2026-04-16 08:53 -33.34526 151.06470 14211 ft 382 kts 175°
2026-04-16 08:53 -33.37163 151.06970 13692 ft 380 kts 175°
2026-04-16 08:54 -33.39760 151.07475 13170 ft 376 kts 175°
2026-04-16 08:54 -33.42327 151.07972 12675 ft 371 kts 175°
2026-04-16 08:54 -33.44840 151.08455 12193 ft 368 kts 175°
2026-04-16 08:54 -33.47365 151.08936 11704 ft 365 kts 174°
2026-04-16 08:55 -33.49851 151.09412 11228 ft 352 kts 174°
2026-04-16 08:55 -33.52195 151.09867 10766 ft 329 kts 174°
2026-04-16 08:55 -33.54396 151.10293 10341 ft 310 kts 174°
2026-04-16 08:55 -33.56467 151.10689 9946 ft 299 kts 175°
2026-04-16 08:56 -33.58514 151.11078 9535 ft 294 kts 174°
2026-04-16 08:56 -33.60536 151.11468 9134 ft 292 kts 174°
2026-04-16 08:56 -33.62462 151.11846 9004 ft 275 kts 174°
2026-04-16 08:56 -33.64362 151.12221 9028 ft 280 kts 174°
2026-04-16 08:57 -33.66281 151.12595 9023 ft 279 kts 174°
2026-04-16 08:57 -33.68206 151.12979 9030 ft 281 kts 174°
2026-04-16 08:57 -33.70143 151.13364 9025 ft 282 kts 174°
2026-04-16 08:57 -33.72060 151.13738 9025 ft 282 kts 174°
2026-04-16 08:58 -33.74002 151.14111 9025 ft 282 kts 174°
2026-04-16 08:58 -33.75947 151.14486 9025 ft 282 kts 174°
2026-04-16 08:58 -33.77866 151.14859 9026 ft 282 kts 174°
2026-04-16 08:58 -33.79814 151.15238 9025 ft 282 kts 174°
2026-04-16 08:59 -33.81098 151.15393 8986 ft 279 kts 184°
2026-04-16 08:59 -33.82972 151.14956 9021 ft 275 kts 198°
2026-04-16 08:59 -33.85495 151.14212 8982 ft 286 kts 197°
2026-04-16 08:59 -33.87429 151.13671 8774 ft 285 kts 196°
2026-04-16 09:00 -33.88703 151.13310 8620 ft 284 kts 197°
2026-04-16 09:00 -33.90625 151.12754 8367 ft 283 kts 197°
2026-04-16 09:00 -33.92531 151.12201 8117 ft 282 kts 197°
2026-04-16 09:00 -33.94432 151.11653 7869 ft 280 kts 197°
2026-04-16 09:01 -33.98214 151.10562 7374 ft 278 kts 197°
2026-04-16 09:01 -34.00099 151.10017 7132 ft 278 kts 197°
2026-04-16 09:01 -34.01977 151.09475 6891 ft 277 kts 197°
2026-04-16 09:02 -34.03846 151.08936 6635 ft 276 kts 197°
2026-04-16 09:02 -34.05716 151.08393 6388 ft 276 kts 196°
2026-04-16 09:02 -34.07558 151.07899 6145 ft 262 kts 192°
2026-04-16 09:02 -34.09299 151.08052 5747 ft 246 kts 171°
2026-04-16 09:03 -34.10958 151.08513 5431 ft 246 kts 171°
2026-04-16 09:03 -34.12625 151.08934 5161 ft 246 kts 171°
2026-04-16 09:03 -34.14289 151.09353 4893 ft 245 kts 171°
2026-04-16 09:03 -34.15947 151.09784 4597 ft 244 kts 171°
2026-04-16 09:04 -34.17592 151.10214 4305 ft 244 kts 171°
2026-04-16 09:04 -34.19252 151.10643 4053 ft 246 kts 171°
2026-04-16 09:04 -34.20911 151.11088 3781 ft 242 kts 170°
2026-04-16 09:04 -34.22359 151.12076 3392 ft 243 kts 134°
2026-04-16 09:05 -34.22944 151.13909 3196 ft 232 kts 92°
2026-04-16 09:05 -34.22799 151.15761 3321 ft 214 kts 82°
2026-04-16 09:05 -34.22616 151.17498 3346 ft 199 kts 83°
2026-04-16 09:05 -34.22466 151.19048 3281 ft 170 kts 83°
2026-04-16 09:06 -34.22332 151.20405 3334 ft 164 kts 83°
2026-04-16 09:06 -34.22193 151.21792 3334 ft 165 kts 83°
2026-04-16 09:06 -34.22017 151.23138 3303 ft 156 kts 70°
2026-04-16 09:06 -34.21330 151.24064 3087 ft 150 kts 17°
2026-04-16 09:07 -34.20357 151.24045 3010 ft 132 kts 344°
2026-04-16 09:07 -34.19449 151.23924 3159 ft 132 kts 348°
2026-04-16 09:07 -34.18515 151.23800 3314 ft 136 kts 348°
2026-04-16 09:07 -34.17583 151.23584 3350 ft 135 kts 341°
2026-04-16 09:08 -34.16666 151.23343 3343 ft 133 kts 342°
2026-04-16 09:08 -34.15779 151.23113 3329 ft 128 kts 342°
2026-04-16 09:08 -34.14917 151.22890 3325 ft 126 kts 341°
2026-04-16 09:08 -34.14053 151.22663 3341 ft 128 kts 342°
2026-04-16 09:09 -34.13200 151.22442 3322 ft 127 kts 341°
2026-04-16 09:09 -34.12321 151.22211 3149 ft 130 kts 342°
2026-04-16 09:09 -34.11437 151.21981 2984 ft 130 kts 342°
2026-04-16 09:09 -34.10564 151.21754 2811 ft 127 kts 343°
2026-04-16 09:10 -34.09712 151.21533 2639 ft 122 kts 343°
2026-04-16 09:10 -34.08894 151.21322 2478 ft 119 kts 342°
2026-04-16 09:10 -34.08083 151.21110 2338 ft 119 kts 343°
2026-04-16 09:10 -34.07274 151.20900 2174 ft 117 kts 343°
2026-04-16 09:11 -34.06483 151.20693 2022 ft 118 kts 343°
2026-04-16 09:11 -34.05676 151.20483 1870 ft 119 kts 343°
2026-04-16 09:11 -34.04868 151.20273 1708 ft 117 kts 344°
2026-04-16 09:11 -34.04081 151.20069 1560 ft 116 kts 345°
2026-04-16 09:12 -34.03286 151.19861 1410 ft 116 kts 343°
2026-04-16 09:12 -34.02508 151.19659 1272 ft 114 kts 346°
2026-04-16 09:12 -34.01708 151.19449 1103 ft 123 kts 346°
2026-04-16 09:12 -34.00893 151.19237 955 ft 117 kts 347°
2026-04-16 09:13 -34.00105 151.19032 812 ft 115 kts 349°
2026-04-16 09:13 -33.99325 151.18824 635 ft 115 kts 348°
2026-04-16 09:13 -33.98540 151.18620 511 ft 118 kts 348°
2026-04-16 09:13 -33.97722 151.18407 361 ft 119 kts 348°
2026-04-16 09:14 -33.96921 151.18197 207 ft 117 kts 348°
2026-04-16 09:14 -33.96121 151.17985 51 ft 118 kts 349°
2026-04-16 09:14 -33.95381 151.17795 26 ft 99 kts 348°
2026-04-16 09:14 -33.94907 151.17672 25 ft 37 kts 348°
2026-04-16 09:15 -33.94646 151.17650 26 ft 36 kts
2026-04-16 09:15 -33.94477 151.17700 27 ft 15 kts 17°
2026-04-16 09:15 -33.94435 151.17716 27 ft 0 kts 17°
2026-04-16 09:15 -33.94433 151.17716 27 ft 0 kts 17°
2026-04-16 09:16 -33.94413 151.17723 27 ft 10 kts 17°
2026-04-16 09:16 -33.94306 151.17728 28 ft 20 kts 345°
2026-04-16 09:16 -33.94170 151.17686 28 ft 20 kts 346°
2026-04-16 09:16 -33.94034 151.17647 25 ft 20 kts 347°
2026-04-16 09:17 -33.93903 151.17617 27 ft 16 kts
2026-04-16 09:17 -33.93856 151.17711 26 ft 13 kts 74°
2026-04-16 09:17 -33.93830 151.17817 26 ft 13 kts 74°
2026-04-16 09:17 -33.93806 151.17920 27 ft 13 kts 75°
2026-04-16 09:18 -33.93782 151.18020 27 ft 12 kts 75°
2026-04-16 09:18 -33.93759 151.18119 27 ft 12 kts 74°
2026-04-16 09:18 -33.93736 151.18217 27 ft 12 kts 74°
2026-04-16 09:18 -33.93713 151.18315 27 ft 12 kts 74°
2026-04-16 09:19 -33.93690 151.18412 27 ft 12 kts 73°
2026-04-16 09:19 -33.93667 151.18510 27 ft 12 kts 74°
2026-04-16 09:19 -33.93643 151.18608 27 ft 12 kts 74°
2026-04-16 09:19 -33.93618 151.18704 26 ft 12 kts 71°
2026-04-16 09:20 -33.93600 151.18799 26 ft 12 kts 79°
2026-04-16 09:20 -33.93599 151.18887 28 ft 10 kts 110°
2026-04-16 09:20 -33.93589 151.18960 26 ft 9 kts 75°
2026-04-16 09:20 -33.93573 151.19028 26 ft 8 kts 75°
2026-04-16 09:21 -33.93558 151.19093 26 ft 8 kts 73°
2026-04-16 09:21 -33.93535 151.19112 26 ft 6 kts 340°
2026-04-16 09:21 -33.93490 151.19094 27 ft 6 kts 343°
2026-04-16 09:21 -33.93467 151.19086 27 ft 0 kts 345°